Weather History for La Crosse, WI

Change the Weather History Date:

Sunday, November 25, 2012

  Actual Average Record
Temperature  
Mean Temperature 30 °F 31 °F  
Max Temperature 38 °F 38 °F 60 °F (1896)
Min Temperature 22 °F 23 °F -10 °F (1880)
Degree Days  
Heating Degree Days 35 34  
Month to date heating degree days 622 691  
Since 1 July heating degree days 1306 1319  
Cooling Degree Days 0 0  
Month to date cooling degree days 0 0  
Year to date cooling degree days 1083 782  
Moisture  
Dew Point 20 °F    
Average Humidity 67    
Maximum Humidity 81    
Minimum Humidity 52    
Precipitation  
Precipitation 0.00 in 0.07 in 0.86 in (1952)
Month to date precipitation 1.24 1.69  
Year to date precipitation 24.70 31.38  
Snow  
Snow 0.00 in 0.20 in 4.20 in (1942)
Month to date snowfall 0.1 2.8  
Since 1 July snowfall 0.1 3.0  
Snow Depth 0.00 in    
Sea Level Pressure  
Sea Level Pressure 29.98 in    
Wind  
Wind Speed 7 mph (WNW)    
Max Wind Speed 20 mph    
Max Gust Speed 24 mph    
Visibility 10 miles    
Events      
T = Trace of Precipitation, MM = Missing Value Source: NWS Daily Summary

Daily Weather History Graph

Daily Weather History Graph

Search for Another Location

Airport:

Trip Planner

Search our weather history database for the weather conditions in past years. The results will help you decide how hot, cold, wet, or windy it might be!

Date:

Astronomy

Nov. 25, 2012 Rise Set
Actual Time 7:12 AM CST 4:31 PM CST
Civil Twilight 6:41 AM CST 5:03 PM CST
Nautical Twilight 6:05 AM CST 5:38 PM CST
Astronomical Twilight 5:30 AM CST 6:13 PM CST
Moon 2:51 PM CST (11/25) 4:23 AM CST (11/25)
Length of Visible Light 10h 22m
Length of Day
9h 18m
Waxing Gibbous, 93% of the Moon is Illuminated
Nov 25
Waxing Gibbous
Nov 28
Full
Dec 6
Last Quarter
Dec 13
New
Dec 19
First Quarter

Hourly Weather History & Observations

Time (CST) Temp. Windchill Dew Point Humidity Pressure Visibility Wind Dir Wind Speed Gust Speed Precip Events Conditions
12:53 AM 30.0 °F 22.4 °F 18.0 °F 61% 29.87 in 10.0 mi South 8.1 mph - N/A   Overcast
1:53 AM 28.0 °F 22.8 °F 18.0 °F 66% 29.87 in - South 4.6 mph - N/A   Mostly Cloudy
2:53 AM 28.0 °F 22.8 °F 19.0 °F 69% 29.88 in 10.0 mi South 4.6 mph - N/A   Mostly Cloudy
3:53 AM 26.1 °F 20.5 °F 18.0 °F 71% 29.86 in 10.0 mi South 4.6 mph - N/A   Clear
4:53 AM 24.1 °F 19.7 °F 18.0 °F 77% 29.88 in 10.0 mi SSW 3.5 mph - N/A   Clear
5:53 AM 25.0 °F - 19.0 °F 78% 29.88 in 10.0 mi Calm Calm - N/A   Mostly Cloudy
6:53 AM 27.0 °F - 21.0 °F 78% 29.90 in 10.0 mi Calm Calm - N/A   Overcast
7:16 AM 26.6 °F - 21.2 °F 80% 29.87 in 10.0 mi Calm Calm - N/A   Overcast
7:53 AM 30.0 °F 24.1 °F 21.0 °F 69% 29.92 in 10.0 mi NNW 5.8 mph - N/A   Overcast
8:53 AM 32.0 °F 22.5 °F 21.0 °F 64% 29.94 in 10.0 mi NW 12.7 mph - N/A   Overcast
9:53 AM 33.1 °F 23.4 °F 21.0 °F 61% 29.96 in 10.0 mi NW 13.8 mph - N/A   Overcast
10:53 AM 35.1 °F 26.4 °F 21.0 °F 57% 29.98 in 10.0 mi NW 12.7 mph - N/A   Overcast
11:25 AM 35.6 °F 28.0 °F 21.2 °F 56% 29.94 in 10.0 mi WNW 10.4 mph - N/A   Scattered Clouds
11:53 AM 35.1 °F 28.6 °F 21.0 °F 57% 29.97 in 10.0 mi WNW 8.1 mph - N/A   Clear
12:53 PM 36.0 °F 27.1 °F 19.9 °F 52% 29.96 in 10.0 mi NNW 13.8 mph - N/A   Clear
1:53 PM 37.0 °F 29.3 °F 21.9 °F 54% 29.96 in 10.0 mi NNW 11.5 mph - N/A   Clear
2:53 PM 37.0 °F 29.3 °F 21.9 °F 54% 29.97 in 10.0 mi NNW 11.5 mph - N/A   Clear
3:53 PM 35.1 °F 29.3 °F 21.9 °F 59% 29.99 in 10.0 mi NNW 6.9 mph - N/A   Clear
4:53 PM 32.0 °F 24.2 °F 21.0 °F 64% 30.01 in 10.0 mi NNW 9.2 mph - N/A   Clear
5:53 PM 30.9 °F 22.2 °F 21.9 °F 69% 30.05 in 10.0 mi NNW 10.4 mph - N/A   Clear
6:53 PM 30.0 °F 19.1 °F 21.0 °F 69% 30.08 in 10.0 mi NW 15.0 mph - N/A   Mostly Cloudy
7:53 PM 28.0 °F 15.7 °F 18.0 °F 66% 30.10 in 10.0 mi NNW 17.3 mph - N/A   Partly Cloudy
8:53 PM 24.1 °F - 17.1 °F 75% 30.12 in 10.0 mi Calm Calm - N/A   Clear
9:53 PM 25.0 °F - 17.1 °F 72% 30.13 in 10.0 mi Calm Calm - N/A   Scattered Clouds
10:53 PM 24.1 °F - 19.0 °F 81% 30.14 in 10.0 mi Calm Calm - N/A   Overcast
11:53 PM 28.0 °F 22.8 °F 21.0 °F 75% 30.16 in 10.0 mi SSW 4.6 mph - N/A   Overcast